sat.trackr.live / text

‹ back to catalog

STARLINK-2032

NORAD 47649 · 2021-012AF

PAYLOAD ACTIVE UNKNOWN

§ Identity

Operator
Country
US
Launch date
2021-02-16
Launch site
AFETR
Launch vehicle
Mass (kg)
RCS (m²)

Purposes: comms

External: N2YO · Heavens-Above · Gunter

§ Orbital elements

Epoch: 2026-05-24T23:44:41.464320Z

Period
91.06 min
Inclination
53.0365°
Eccentricity
0.0003074
Mean motion
15.81448480 rev/d
Perigee alt
324.3 km
Apogee alt
328.4 km
Semi-major
6,704.5 km
B*
6.8956e-4
RAAN
354.8363°
Arg perigee
321.6899°
Mean anomaly
38.3904°
Rev number
29,281

§ Raw data

STARLINK-20321 47649U 21012AF  26144.98936880  .00141413  00000+0  68956-3 0  99942 47649  53.0365 354.8363 0003074 321.6899  38.3904 15.81448480292810

JSON: /api/v1/satellites/47649 · /tle

For live sub-satellite position, see the globe view (requires WebGL).

§ Visibility from observer

Set your observer location to see the next 7 days of passes ≥ 10°. The values pass through the URL so the page stays shareable.

No JS? Fill the form by hand. The geolocation button needs JavaScript.